Wind_Speed
2 2 4 5 7 9 8 9 8 8 7 8 7 8 9 13 16 19 21 25 29 31 32 35 38 38 43 47 47 50 53 56 58 62 67 73 72 72 72 73 75 76 74 71 69 69 68
5 6 8 9 10 11 10 9 9 9 8 9 10 10 12 13 17 20 22 25 29 31 34 37 39 44 47 49 51 54 57 59 63 68 72 74 77 77 75 78 79 77 66 57 49 49 45
9 10 10 10 11 11 10 9 9 9 10 11 11 12 14 16 19 20 22 25 28 33 37 40 45 48 49 52 53 56 60 65 68 72 77 79 80 80 81 81 78 68 46 36 34 39 39
12 12 11 11 12 12 12 11 9 10 10 11 11 13 15 17 19 18 21 26 30 35 39 44 46 49 51 52 55 60 64 67 71 75 78 81 82 82 83 80 62 43 32 30 35 41 44
11 12 11 13 14 14 14 13 10 9 9 10 13 14 16 17 17 20 23 28 32 37 41 44 47 49 51 53 57 60 64 69 74 76 79 84 85 84 81 64 40 33 35 38 40 42 43
12 12 12 15 14 12 12 10 7 8 8 11 14 15 15 16 18 22 26 30 34 38 44 46 47 49 51 55 58 62 67 72 74 79 84 85 85 83 73 44 32 35 39 37 35 34 35
11 11 13 13 12 10 9 6 6 7 10 12 14 15 15 16 19 23 28 32 36 40 43 45 45 49 52 55 59 63 68 72 77 81 84 85 84 75 59 36 38 38 33 31 27 31 34
9 10 12 10 8 8 5 5 6 8 10 12 14 14 13 17 21 25 29 34 38 40 44 45 48 50 54 58 60 65 71 74 78 81 83 83 80 67 43 38 38 35 33 33 29 29 28
8 8 8 6 6 6 6 7 9 11 11 12 14 11 14 17 22 27 31 34 37 41 43 45 48 50 55 60 63 68 71 75 77 81 82 82 74 53 35 37 34 36 34 35 35 27 26
8 8 7 7 7 8 10 12 15 15 13 12 10 10 14 19 24 28 30 35 40 42 44 48 51 54 57 61 64 68 70 75 78 80 82 81 68 42 34 36 32 32 35 38 36 31 29
9 9 8 9 9 10 12 12 11 10 9 8 9 13 17 21 26 28 32 37 41 45 46 49 52 54 59 61 63 65 70 76 79 81 81 78 62 34 32 34 33 34 36 38 39 33 33
10 9 10 9 10 11 11 12 11 8 8 8 10 14 19 24 27 29 36 40 42 45 47 49 52 53 56 59 64 67 70 76 80 79 80 76 58 34 30 35 35 39 37 40 38 40 32
11 10 10 9 10 11 10 8 9 8 7 11 13 18 20 24 27 32 38 38 43 44 47 50 51 54 58 60 63 66 70 74 76 76 75 73 56 35 31 31 37 42 39 40 40 43 38
12 11 10 10 10 11 9 7 6 7 10 14 17 19 22 25 29 33 35 41 45 46 47 50 51 55 59 60 64 66 69 73 76 78 76 65 54 34 32 36 39 42 44 43 46 47 40
14 13 11 11 10 11 8 7 8 10 13 16 19 20 23 27 30 34 38 43 47 48 49 51 52 57 59 60 63 65 69 73 76 78 76 65 42 33 32 37 41 42 43 46 47 47 44
17 16 13 13 12 11 10 10 11 14 15 19 19 20 24 29 32 35 38 44 46 48 48 50 52 56 57 59 61 65 69 73 74 77 78 66 41 35 31 36 41 42 46 48 46 50 45
19 18 18 16 15 15 13 14 14 15 17 17 19 22 27 31 31 35 40 43 45 48 48 50 52 54 57 58 61 63 68 71 73 75 75 69 52 34 30 34 39 43 45 46 47 46 49
21 19 17 17 16 16 17 16 16 15 18 19 21 24 27 29 32 36 38 42 47 49 49 49 50 53 56 59 60 63 68 70 72 74 73 69 58 37 26 32 36 42 43 45 48 45 42
23 21 18 18 18 17 18 18 17 18 20 22 25 25 26 29 33 35 37 42 47 51 49 49 50 53 57 58 59 62 67 70 71 73 73 70 58 45 28 32 35 40 42 43 46 47 43
24 23 21 19 18 17 19 21 21 21 23 23 24 24 24 27 32 35 39 44 48 49 49 49 50 53 55 56 58 62 66 69 70 72 73 69 59 45 35 31 34 38 39 40 42 47 46
26 25 23 22 21 19 19 20 21 23 23 23 24 23 25 28 32 36 40 44 48 49 49 50 51 52 53 55 55 60 65 68 70 72 73 68 57 46 37 29 32 36 35 37 40 42 43
28 27 26 24 23 22 21 20 21 23 22 21 23 24 25 29 32 35 39 44 48 49 48 50 50 52 52 53 54 58 62 67 68 70 72 70 58 43 37 33 29 31 33 33 35 40 38
31 29 28 27 27 25 21 20 21 22 21 20 23 26 29 30 31 35 40 44 48 50 48 49 49 51 51 52 52 57 61 65 66 68 70 70 66 53 35 32 28 27 31 30 30 37 38
33 31 30 31 29 29 26 23 22 21 23 23 24 27 30 32 33 36 41 46 50 51 48 48 49 50 49 50 51 55 60 63 65 68 70 71 69 61 45 30 27 27 27 29 31 33 34
36 34 33 34 32 30 30 28 25 26 25 25 27 29 32 33 34 37 41 46 50 51 48 47 48 49 48 49 49 54 59 62 64 67 68 70 70 66 53 35 25 23 27 24 29 32 32
40 37 37 37 34 33 33 31 29 27 29 29 31 32 34 36 36 37 41 45 51 50 49 47 48 49 48 48 49 52 57 60 63 66 68 70 70 65 57 42 31 24 22 22 24 26 29
39 39 37 37 37 39 43 35 31 29 29 31 32 33 33 36 38 39 43 45 51 50 49 47 48 48 47 47 49 51 55 59 61 63 65 67 67 66 58 46 34 25 20 19 20 19 20
39 44 47 43 42 47 49 37 36 34 32 32 33 34 32 33 39 41 43 46 50 51 50 48 48 47 47 47 48 51 55 58 59 63 64 67 68 68 64 54 42 26 16 16 14 16 16
32 34 41 48 45 50 54 40 36 35 37 35 35 34 33 36 41 42 45 47 50 51 49 47 47 47 47 46 48 51 54 57 59 61 64 66 68 68 64 55 45 36 17 14 11 8 10
Wind_Direction
253 286 301 299 299 303 301 290 292 293 286 293 298 299 303 309 317 322 326 336 339 342 346 343 340 339 339 337 336 336 335 335 334 332 329 325 321 322 321 317 313 307 303 297 290 282 276
273 287 297 302 306 307 305 298 287 289 286 289 296 301 307 310 315 323 327 333 338 340 342 339 339 338 336 335 337 338 337 336 334 332 328 327 328 326 324 319 315 312 308 299 291 287 284
278 287 296 304 311 316 312 298 284 282 287 293 297 307 308 306 312 322 329 336 334 338 339 336 336 334 335 336 338 339 337 336 335 334 331 331 331 328 324 321 319 316 310 310 304 295 296
280 287 291 298 307 307 319 306 292 280 287 292 300 308 305 307 314 322 330 330 333 339 338 335 333 333 334 336 339 339 340 336 335 336 334 334 333 330 326 324 322 320 323 320 305 297 295
283 290 288 304 304 307 307 305 296 283 288 291 303 308 302 308 315 324 330 331 338 337 334 333 332 331 335 341 343 340 339 338 337 336 337 337 334 330 330 328 332 328 323 312 311 309 303
284 293 296 305 305 306 306 305 293 286 292 301 308 306 306 312 319 328 332 336 339 336 335 334 333 335 342 343 342 341 340 339 339 341 340 337 334 332 331 338 337 327 328 327 327 318 316
291 295 305 305 305 310 309 297 286 292 304 308 310 308 312 321 327 334 335 336 336 336 335 337 338 340 343 344 343 343 341 342 343 344 340 339 337 335 334 342 338 337 341 331 340 325 329
297 305 309 308 305 305 298 288 290 297 301 305 304 308 316 326 330 334 335 335 334 337 338 339 342 343 344 345 343 344 344 344 345 343 340 340 337 337 337 344 342 337 336 326 331 317 316
312 311 314 323 315 310 300 293 293 298 303 295 302 307 320 326 330 335 336 334 338 337 340 342 345 344 346 347 347 346 345 346 346 344 342 341 340 337 342 342 344 333 333 330 326 326 307
310 303 301 303 307 303 297 298 301 298 291 297 305 312 323 327 334 334 337 339 337 338 340 345 346 345 349 348 347 348 346 348 347 346 345 343 342 341 339 339 338 335 333 334 333 330 336
292 299 297 295 305 306 304 309 320 319 311 309 314 323 328 332 333 337 339 340 339 339 344 344 346 347 351 349 348 349 350 350 348 348 346 344 343 346 336 336 336 334 337 335 337 347 344
286 293 294 298 305 304 304 311 319 313 314 323 329 327 328 331 334 337 337 338 340 341 347 348 347 351 349 348 349 351 352 351 350 349 347 347 345 346 341 338 339 337 341 342 346 348 353
280 286 291 298 307 307 302 309 308 307 315 319 315 322 325 331 333 336 338 342 342 348 348 349 349 350 351 350 349 352 353 351 349 350 349 347 346 344 344 342 335 337 343 350 357 350 3
273 279 284 292 307 308 299 291 295 295 306 313 316 320 325 330 333 336 341 343 344 346 349 349 350 351 350 350 351 353 354 352 352 351 352 350 345 342 344 340 340 343 348 353 352 352 6
272 271 280 283 298 304 299 288 290 294 304 314 318 317 324 329 332 334 338 342 344 345 346 348 350 353 350 350 351 352 354 353 353 352 353 352 345 337 345 341 341 341 348 356 354 5 7
272 267 272 276 282 288 285 292 297 300 303 312 313 317 321 327 328 331 336 341 341 345 347 349 351 352 350 351 352 353 354 354 354 353 354 354 353 336 342 344 341 345 350 353 358 2 5
267 273 267 272 275 281 283 282 291 301 309 313 314 318 320 325 326 332 336 340 342 347 349 350 352 350 350 352 352 353 354 354 354 355 354 354 354 344 342 345 345 348 351 355 360 6 350
266 273 270 268 270 273 276 279 287 294 302 307 313 316 321 326 328 332 336 343 348 349 350 351 351 349 351 351 353 353 353 355 355 355 355 356 355 356 342 346 350 348 350 357 358 11 357
264 271 268 272 271 274 277 282 287 291 298 306 311 314 321 325 326 331 335 340 346 348 349 350 349 349 350 351 353 354 354 355 355 356 355 357 355 352 348 348 351 348 353 360 358 6 5
261 268 274 270 272 276 279 278 278 285 294 303 303 311 319 320 327 329 330 335 343 346 347 348 349 349 349 351 353 354 354 355 355 356 356 358 355 349 352 346 350 353 352 356 3 6 9
257 266 272 269 272 281 283 286 287 285 290 295 303 307 316 322 326 326 329 333 341 345 346 348 348 347 348 349 353 354 354 355 355 356 356 358 356 347 346 344 347 350 352 356 7 6 4
255 262 268 269 271 276 284 291 284 289 284 293 300 306 315 320 324 324 328 333 340 345 345 346 345 345 347 349 352 352 354 355 355 356 357 357 359 351 335 340 341 346 354 358 1 7 10
251 258 265 271 269 272 282 291 286 287 285 295 299 307 316 320 324 327 331 333 338 343 344 344 343 345 345 348 350 351 352 353 355 356 356 356 357 358 343 337 333 340 352 357 8 6 9
251 255 261 267 271 269 276 283 284 283 284 293 297 304 313 317 322 325 329 333 337 340 342 342 342 343 345 346 348 349 350 352 354 354 355 356 356 359 355 338 335 338 347 355 3 9 11
248 252 256 263 269 266 272 273 280 279 283 290 295 302 311 312 318 322 329 333 335 339 339 339 338 341 343 344 345 346 349 351 352 354 354 355 355 357 358 350 335 336 335 354 6 7 12
248 251 257 261 263 264 267 276 274 282 284 288 292 299 310 316 316 320 328 330 330 336 336 336 335 338 340 341 344 346 348 350 352 354 353 355 355 355 356 353 341 332 327 345 357 6 16
242 248 251 256 257 256 262 270 270 276 286 293 296 303 310 314 314 320 324 326 327 332 333 331 333 335 338 340 341 344 346 348 350 352 353 353 354 353 355 352 343 325 319 327 349 11 15
244 254 249 252 256 257 259 266 272 274 281 290 296 302 306 312 315 319 322 323 325 329 331 330 331 332 336 336 339 342 345 346 348 350 351 352 353 352 354 354 351 336 308 310 334 354 14
253 255 259 249 257 259 262 267 270 277 282 285 292 297 304 310 311 316 319 320 325 327 329 327 329 332 332 335 338 342 343 344 346 348 350 352 352 352 353 353 350 341 312 275 297 344 3
Height
5844 5844 5844 5844 5843 5842 5842 5842 5842 5841 5840 5840 5840 5839 5838 5836 5835 5833 5831 5828 5825 5822 5817 5813 5809 5804 5799 5792 5785 5777 5768 5759 5750 5741 5732 5721 5707 5693 5679 5664 5650 5636 5622 5607 5594 5585 5579
5843 5843 5843 5842 5841 5841 5841 5840 5840 5839 5839 5838 5837 5837 5836 5835 5833 5831 5828 5826 5823 5819 5814 5810 5805 5799 5793 5785 5775 5765 5758 5749 5740 5728 5716 5702 5688 5673 5659 5643 5626 5611 5597 5584 5572 5562 5559
5842 5842 5841 5840 5840 5839 5839 5838 5838 5838 5837 5836 5836 5835 5834 5832 5830 5828 5826 5824 5820 5816 5811 5805 5799 5792 5784 5777 5767 5756 5748 5738 5729 5717 5700 5684 5669 5654 5637 5620 5604 5590 5579 5569 5561 5553 5551
5840 5840 5839 5839 5838 5838 5837 5836 5836 5836 5835 5835 5834 5833 5831 5830 5828 5826 5824 5821 5817 5812 5807 5800 5793 5785 5776 5767 5758 5748 5736 5725 5715 5700 5684 5668 5652 5636 5617 5599 5585 5574 5569 5563 5555 5546 5541
5838 5838 5837 5837 5836 5835 5835 5834 5834 5834 5834 5833 5833 5831 5829 5827 5825 5823 5821 5818 5813 5808 5802 5795 5788 5779 5770 5759 5749 5739 5730 5719 5702 5689 5672 5653 5635 5618 5600 5584 5574 5566 5560 5554 5548 5540 5532
5836 5836 5835 5835 5834 5833 5833 5832 5832 5832 5832 5832 5830 5829 5827 5825 5823 5820 5817 5814 5808 5804 5797 5789 5781 5773 5762 5753 5742 5731 5718 5706 5692 5672 5658 5641 5623 5602 5584 5573 5567 5560 5554 5544 5538 5531 5522
5834 5834 5833 5832 5832 5831 5831 5831 5831 5831 5830 5830 5828 5826 5824 5823 5820 5817 5814 5808 5806 5800 5791 5784 5775 5764 5756 5747 5736 5724 5712 5695 5677 5659 5644 5626 5607 5588 5573 5566 5559 5552 5545 5537 5532 5522 5517
5832 5831 5831 5830 5830 5829 5829 5830 5830 5829 5828 5827 5826 5824 5822 5820 5817 5814 5810 5805 5801 5794 5785 5778 5768 5759 5750 5740 5729 5717 5701 5687 5671 5656 5637 5619 5598 5580 5566 5559 5553 5545 5538 5531 5527 5517 5509
5830 5829 5829 5828 5828 5828 5828 5828 5828 5827 5826 5824 5823 5822 5820 5818 5814 5811 5807 5803 5796 5789 5781 5773 5764 5755 5745 5733 5719 5707 5693 5679 5665 5646 5628 5608 5588 5570 5561 5554 5548 5539 5532 5526 5515 5512 5501
5828 5828 5827 5827 5827 5827 5826 5826 5825 5824 5822 5821 5821 5820 5818 5816 5814 5809 5804 5798 5791 5783 5775 5767 5758 5747 5737 5724 5713 5699 5684 5672 5654 5640 5618 5601 5581 5568 5556 5550 5544 5538 5529 5519 5510 5502 5495
5827 5827 5826 5825 5825 5825 5824 5824 5823 5821 5820 5819 5819 5817 5815 5812 5809 5805 5800 5794 5786 5778 5771 5763 5752 5741 5728 5719 5708 5695 5678 5659 5642 5628 5612 5594 5573 5563 5556 5550 5542 5535 5524 5515 5505 5497 5485
5825 5825 5824 5824 5823 5823 5822 5822 5820 5819 5819 5818 5817 5815 5812 5809 5805 5801 5795 5789 5783 5775 5765 5758 5747 5736 5726 5715 5702 5687 5672 5655 5637 5615 5600 5584 5570 5562 5556 5545 5538 5530 5522 5511 5500 5490 5480
5822 5822 5822 5822 5822 5821 5820 5820 5819 5818 5818 5816 5814 5812 5809 5806 5802 5797 5791 5786 5778 5769 5762 5753 5743 5733 5721 5709 5697 5682 5667 5654 5640 5625 5604 5582 5568 5558 5552 5545 5535 5527 5518 5508 5498 5484 5474
5820 5819 5820 5819 5819 5819 5818 5817 5817 5816 5816 5814 5812 5809 5806 5802 5798 5793 5788 5782 5774 5766 5757 5748 5738 5727 5716 5705 5691 5676 5662 5647 5631 5613 5595 5578 5562 5554 5547 5540 5531 5522 5510 5500 5487 5478 5470
5817 5816 5816 5817 5817 5817 5816 5816 5815 5814 5813 5811 5809 5806 5803 5799 5794 5789 5784 5777 5769 5762 5754 5743 5733 5723 5711 5698 5685 5671 5656 5641 5624 5608 5593 5575 5561 5550 5546 5537 5528 5518 5508 5497 5487 5477 5464
5814 5813 5813 5814 5814 5814 5814 5814 5813 5812 5810 5808 5805 5803 5800 5796 5791 5786 5781 5774 5766 5758 5749 5738 5728 5717 5705 5693 5681 5666 5652 5637 5620 5605 5587 5573 5562 5549 5543 5536 5527 5517 5506 5495 5485 5468 5460
5809 5809 5810 5810 5810 5810 5811 5811 5810 5809 5807 5804 5802 5800 5796 5792 5787 5782 5776 5770 5762 5753 5743 5734 5723 5713 5701 5689 5677 5664 5650 5636 5619 5603 5587 5572 5561 5551 5541 5534 5526 5515 5504 5493 5482 5470 5457
5805 5805 5805 5806 5806 5806 5806 5806 5806 5805 5803 5801 5799 5797 5793 5788 5784 5778 5772 5764 5758 5747 5738 5728 5719 5709 5697 5684 5673 5660 5645 5632 5617 5602 5587 5570 5558 5548 5540 5532 5524 5514 5504 5493 5483 5474 5464
5800 5801 5801 5801 5802 5802 5802 5802 5802 5801 5799 5798 5795 5792 5789 5784 5779 5773 5767 5760 5752 5743 5733 5724 5715 5704 5692 5681 5670 5657 5643 5630 5615 5599 5583 5568 5555 5547 5539 5532 5524 5515 5504 5494 5483 5472 5465
5795 5796 5797 5797 5797 5797 5797 5797 5796 5796 5795 5793 5791 5787 5784 5780 5774 5768 5762 5756 5748 5739 5729 5720 5711 5701 5689 5678 5666 5654 5641 5627 5612 5597 5581 5566 5553 5542 5534 5529 5523 5515 5506 5496 5486 5475 5467
5790 5792 5792 5792 5793 5792 5791 5791 5791 5790 5789 5788 5785 5783 5778 5774 5770 5764 5758 5751 5743 5734 5725 5716 5707 5698 5687 5676 5665 5653 5640 5625 5611 5596 5580 5565 5553 5541 5533 5527 5521 5515 5507 5497 5486 5477 5469
5784 5786 5787 5787 5787 5786 5786 5786 5785 5784 5783 5783 5780 5777 5774 5769 5764 5759 5752 5745 5737 5729 5721 5712 5703 5693 5683 5673 5661 5651 5640 5627 5614 5597 5581 5566 5556 5543 5533 5526 5520 5515 5508 5499 5490 5481 5474
5777 5780 5781 5781 5781 5781 5781 5780 5779 5778 5778 5777 5775 5771 5767 5764 5759 5754 5748 5740 5732 5724 5717 5708 5699 5689 5679 5669 5659 5648 5637 5626 5613 5600 5585 5570 5558 5547 5536 5526 5521 5517 5509 5502 5494 5483 5475
5771 5773 5774 5774 5775 5775 5776 5775 5773 5772 5771 5770 5769 5766 5763 5758 5754 5749 5743 5736 5728 5720 5712 5704 5695 5685 5676 5667 5657 5647 5636 5625 5611 5598 5584 5571 5558 5547 5538 5527 5521 5516 5512 5502 5495 5487 5479
5763 5765 5767 5767 5768 5768 5769 5769 5767 5765 5765 5763 5762 5761 5757 5753 5748 5743 5737 5730 5722 5715 5707 5698 5690 5681 5672 5664 5655 5645 5634 5623 5609 5597 5584 5570 5558 5546 5536 5526 5519 5513 5508 5503 5496 5490 5482
5755 5757 5759 5759 5760 5760 5762 5763 5761 5759 5758 5757 5755 5754 5751 5747 5742 5737 5731 5725 5717 5710 5703 5694 5685 5677 5669 5661 5651 5641 5630 5619 5607 5593 5579 5565 5552 5542 5532 5524 5516 5512 5508 5503 5498 5493 5486
5746 5749 5750 5751 5751 5751 5753 5756 5754 5752 5751 5751 5749 5747 5745 5741 5736 5730 5725 5720 5712 5705 5697 5688 5681 5673 5665 5656 5648 5639 5628 5618 5607 5597 5585 5572 5559 5546 5532 5522 5515 5509 5506 5503 5499 5499 5491
5736 5739 5742 5743 5743 5742 5743 5747 5747 5745 5744 5743 5742 5740 5738 5734 5729 5724 5720 5714 5706 5699 5692 5684 5677 5669 5661 5652 5645 5636 5625 5615 5605 5593 5583 5571 5560 5546 5535 5524 5516 5507 5505 5501 5501 5496 5493
5728 5731 5732 5733 5734 5734 5735 5738 5739 5737 5737 5735 5734 5732 5730 5727 5723 5718 5714 5707 5701 5694 5686 5678 5671 5663 5655 5647 5640 5633 5622 5612 5602 5592 5581 5569 5557 5544 5532 5521 5510 5504 5501 5499 5498 5496 5494